TimeCST,TemperatureF,Dew PointF,Humidity,Sea Level PressureIn,VisibilityMPH,Wind Direction,Wind SpeedMPH,Gust SpeedMPH,PrecipitationIn,Events,Conditions,WindDirDegrees,DateUTC
12:15 AM,41.0,33.8,76,30.13,10.0,SSW,5.8,-,N/A,,Clear,210,2013-12-01 06:15:00
12:35 AM,42.8,33.8,70,30.13,10.0,SSW,6.9,-,N/A,,Mostly Cloudy,210,2013-12-01 06:35:00
12:55 AM,42.8,33.8,70,30.13,10.0,SSW,5.8,-,N/A,,Overcast,210,2013-12-01 06:55:00
1:15 AM,41.0,33.8,76,30.12,10.0,SSW,4.6,-,N/A,,Scattered Clouds,210,2013-12-01 07:15:00
1:35 AM,41.0,33.8,76,30.12,10.0,SSW,4.6,-,N/A,,Clear,210,2013-12-01 07:35:00
1:55 AM,41.0,33.8,76,30.12,10.0,SW,3.5,-,N/A,,Scattered Clouds,220,2013-12-01 07:55:00
2:15 AM,42.8,35.6,76,30.12,10.0,Calm,Calm,-,N/A,,Overcast,0,2013-12-01 08:15:00
2:35 AM,42.8,35.6,76,30.12,10.0,Calm,Calm,-,N/A,,Overcast,0,2013-12-01 08:35:00
2:55 AM,42.8,35.6,76,30.12,10.0,SW,3.5,-,N/A,,Overcast,220,2013-12-01 08:55:00
3:15 AM,42.8,35.6,76,30.11,10.0,Calm,Calm,-,N/A,,Overcast,0,2013-12-01 09:15:00
3:35 AM,42.8,35.6,76,30.11,10.0,Calm,Calm,-,N/A,,Overcast,0,2013-12-01 09:35:00
3:55 AM,42.8,35.6,76,30.10,10.0,Calm,Calm,-,N/A,,Overcast,0,2013-12-01 09:55:00
4:15 AM,42.8,35.6,76,30.10,10.0,Calm,Calm,-,N/A,,Overcast,0,2013-12-01 10:15:00
4:35 AM,42.8,35.6,76,30.11,10.0,Calm,Calm,-,N/A,,Overcast,0,2013-12-01 10:35:00
4:55 AM,42.8,35.6,76,30.11,10.0,Calm,Calm,-,N/A,,Overcast,0,2013-12-01 10:55:00
5:15 AM,42.8,37.4,81,30.10,10.0,Calm,Calm,-,N/A,,Overcast,0,2013-12-01 11:15:00
5:35 AM,44.6,37.4,76,30.11,10.0,Calm,Calm,-,N/A,,Overcast,0,2013-12-01 11:35:00
5:55 AM,44.6,37.4,76,30.10,10.0,SW,3.5,-,N/A,,Overcast,220,2013-12-01 11:55:00
6:15 AM,42.8,35.6,76,30.11,10.0,SW,3.5,-,N/A,,Overcast,230,2013-12-01 12:15:00
6:35 AM,42.8,35.6,76,30.11,10.0,Calm,Calm,-,N/A,,Scattered Clouds,0,2013-12-01 12:35:00
6:55 AM,42.8,35.6,76,30.11,10.0,Calm,Calm,-,N/A,,Scattered Clouds,0,2013-12-01 12:55:00
7:15 AM,41.0,35.6,81,30.11,10.0,Calm,Calm,-,N/A,,Mostly Cloudy,0,2013-12-01 13:15:00
7:35 AM,39.2,35.6,87,30.12,10.0,Calm,Calm,-,N/A,,Overcast,0,2013-12-01 13:35:00
7:55 AM,39.2,35.6,87,30.12,10.0,Calm,Calm,-,N/A,,Overcast,0,2013-12-01 13:55:00
8:15 AM,41.0,37.4,87,30.13,10.0,Calm,Calm,-,N/A,,Overcast,0,2013-12-01 14:15:00
8:35 AM,44.6,37.4,76,30.13,10.0,Calm,Calm,-,N/A,,Overcast,0,2013-12-01 14:35:00
8:55 AM,44.6,37.4,76,30.13,10.0,Calm,Calm,-,N/A,,Mostly Cloudy,0,2013-12-01 14:55:00
9:15 AM,46.4,37.4,71,30.13,10.0,West,5.8,-,N/A,,Scattered Clouds,270,2013-12-01 15:15:00
9:35 AM,46.4,37.4,71,30.13,10.0,West,4.6,-,N/A,,Clear,280,2013-12-01 15:35:00
9:55 AM,48.2,39.2,71,30.13,10.0,West,3.5,-,N/A,,Clear,280,2013-12-01 15:55:00
10:15 AM,50.0,39.2,66,30.12,10.0,Calm,Calm,-,N/A,,Clear,0,2013-12-01 16:15:00
10:35 AM,50.0,39.2,66,30.12,10.0,Calm,Calm,-,N/A,,Clear,0,2013-12-01 16:35:00
10:55 AM,51.8,39.2,62,30.11,10.0,Calm,Calm,-,N/A,,Clear,0,2013-12-01 16:55:00
11:15 AM,51.8,39.2,62,30.10,10.0,Calm,Calm,-,N/A,,Clear,0,2013-12-01 17:15:00
11:35 AM,51.8,39.2,62,30.09,10.0,NNW,4.6,-,N/A,,Clear,330,2013-12-01 17:35:00
11:55 AM,53.6,39.2,58,30.07,10.0,Calm,Calm,-,N/A,,Clear,0,2013-12-01 17:55:00
12:15 PM,53.6,39.2,58,30.06,10.0,Calm,Calm,-,N/A,,Clear,0,2013-12-01 18:15:00
12:35 PM,55.4,41.0,58,30.05,10.0,WSW,3.5,-,N/A,,Clear,250,2013-12-01 18:35:00
12:55 PM,55.4,41.0,58,30.04,10.0,WNW,3.5,-,N/A,,Clear,290,2013-12-01 18:55:00
1:15 PM,55.4,41.0,58,30.03,10.0,Calm,Calm,-,N/A,,Clear,0,2013-12-01 19:15:00
1:35 PM,55.4,41.0,58,30.02,10.0,Calm,Calm,-,N/A,,Clear,0,2013-12-01 19:35:00
1:55 PM,55.4,41.0,58,30.01,10.0,Calm,Calm,-,N/A,,Clear,0,2013-12-01 19:55:00
2:15 PM,55.4,41.0,58,30.00,10.0,Calm,Calm,-,N/A,,Clear,0,2013-12-01 20:15:00
2:35 PM,55.4,39.2,54,30.00,10.0,NW,3.5,-,N/A,,Clear,320,2013-12-01 20:35:00
2:55 PM,55.4,39.2,54,30.00,10.0,Calm,Calm,-,N/A,,Clear,0,2013-12-01 20:55:00
3:15 PM,55.4,41.0,58,29.99,10.0,Calm,Calm,-,N/A,,Clear,0,2013-12-01 21:15:00
3:35 PM,55.4,39.2,54,29.99,10.0,Calm,Calm,-,N/A,,Clear,0,2013-12-01 21:35:00
3:55 PM,53.6,39.2,58,29.98,10.0,Calm,Calm,-,N/A,,Clear,0,2013-12-01 21:55:00
4:15 PM,53.6,39.2,58,29.98,10.0,Calm,Calm,-,N/A,,Clear,0,2013-12-01 22:15:00
4:35 PM,51.8,39.2,62,29.98,10.0,Calm,Calm,-,N/A,,Clear,0,2013-12-01 22:35:00
4:55 PM,51.8,39.2,62,29.98,10.0,Calm,Calm,-,N/A,,Clear,0,2013-12-01 22:55:00
5:15 PM,46.4,37.4,71,29.98,10.0,Calm,Calm,-,N/A,,Clear,0,2013-12-01 23:15:00
5:35 PM,46.4,37.4,71,29.98,10.0,Calm,Calm,-,N/A,,Clear,0,2013-12-01 23:35:00
5:55 PM,44.6,37.4,76,29.98,10.0,Calm,Calm,-,N/A,,Clear,0,2013-12-01 23:55:00
6:15 PM,44.6,37.4,76,29.98,10.0,NE,3.5,-,N/A,,Clear,40,2013-12-02 00:15:00
6:35 PM,44.6,37.4,76,29.98,10.0,Calm,Calm,-,N/A,,Clear,0,2013-12-02 00:35:00
6:55 PM,42.8,37.4,81,29.98,10.0,Calm,Calm,-,N/A,,Clear,0,2013-12-02 00:55:00
7:15 PM,41.0,37.4,87,29.98,10.0,East,3.5,-,N/A,,Clear,80,2013-12-02 01:15:00
7:35 PM,42.8,37.4,81,29.97,10.0,SE,3.5,-,N/A,,Clear,130,2013-12-02 01:35:00
7:55 PM,41.0,35.6,81,29.97,10.0,Calm,Calm,-,N/A,,Clear,0,2013-12-02 01:55:00
8:15 PM,41.0,37.4,87,29.97,10.0,Calm,Calm,-,N/A,,Clear,0,2013-12-02 02:15:00
8:35 PM,41.0,37.4,87,29.97,10.0,Calm,Calm,-,N/A,,Clear,0,2013-12-02 02:35:00
8:55 PM,41.0,37.4,87,29.97,7.0,Calm,Calm,-,N/A,,Clear,0,2013-12-02 02:55:00
9:15 PM,42.8,37.4,81,29.97,10.0,Calm,Calm,-,N/A,,Clear,0,2013-12-02 03:15:00
9:35 PM,37.4,35.6,93,29.96,5.0,Calm,Calm,-,N/A,,Clear,0,2013-12-02 03:35:00
9:55 PM,37.4,35.6,93,29.95,10.0,SE,3.5,-,N/A,,Clear,130,2013-12-02 03:55:00
10:15 PM,37.4,35.6,93,29.95,10.0,Calm,Calm,-,N/A,,Clear,0,2013-12-02 04:15:00
10:35 PM,41.0,37.4,87,29.94,10.0,Calm,Calm,-,N/A,,Clear,0,2013-12-02 04:35:00
10:55 PM,37.4,35.6,93,29.94,10.0,Calm,Calm,-,N/A,,Clear,0,2013-12-02 04:55:00
11:15 PM,37.4,35.6,93,29.93,10.0,Calm,Calm,-,N/A,,Clear,0,2013-12-02 05:15:00
11:35 PM,37.4,35.6,93,29.92,10.0,Calm,Calm,-,N/A,,Clear,0,2013-12-02 05:35:00
11:55 PM,35.6,33.8,93,29.92,10.0,Calm,Calm,-,N/A,,Clear,0,2013-12-02 05:55:00